Simultaneous Nadir Overpasses (SNOs) Predictions

Prediction of SNOs between GOES-16 and LANDSAT-8 Satellite Orbit:

Table of predicted SNOs for the next 14.0 days since TLE Epoch: 1/6/2024
Index Date Time (GOES-16) GOES-16 Lat,Lon LANDSAT-8 Lat,Lon Distance(km) Time Diff (sec)
1 01/06/2024 15:06:35 -0.01, -75.23 -0.31, -73.92 149.44 80
2 01/07/2024 03:30:39 0.01, -75.20 -0.83, -79.10 443.42 80
3 01/08/2024 14:54:25 -0.02, -75.23 -0.94, -70.97 485.35 80
4 01/09/2024 03:18:29 0.01, -75.21 -0.20, -76.15 107.53 80
5 01/11/2024 03:03:39 0.02, -75.22 0.45, -73.20 228.58 80
6 01/11/2024 15:24:55 -0.02, -75.24 0.64, -78.36 355.17 80
7 01/13/2024 15:12:45 -0.02, -75.25 -0.02, -75.42 18.50 80
8 01/15/2024 15:00:34 -0.01, -75.27 -0.62, -72.46 319.93 80
9 01/16/2024 03:24:38 0.01, -75.26 -0.50, -77.65 272.07 80
10 01/18/2024 03:09:47 0.01, -75.28 0.12, -74.69 66.77 80
